Location: Gleizolles
(44.4833°N, 6.7667°E)
Time: 17:01:20
(UTC+00:00)

RS-15 - Pass Details

Date: 03 December 2022
Orbit: 1883 x 2162 km, 64.8° (Epoch: 05 February)

Event Time Altitude Azimuth Distance (km) Brightness Sun altitude
Rises 21:48:04 0° 322° (NW) 5,662 10.9 -60.4°
Reaches altitude 10° 21:51:55 10° 315° (NW) 4,630 10.3 -60.9°
Enters shadow 21:57:16 26° 295° (WNW) 3,439 9.4 -61.6°
